Temp
14 14 14 14 15 15 16 16 16 16 16 17 17 17 17 17 18 18 18 18 18 18 19 19 19 19 19 19 19 20 19 19 19 19 17 17 17 18 19 20 20 20 20 21 22 21 21 20 19 19 20 18 15 15 15 12 12 15 16 16 15 14 13 14 12 12 13 13 12 12 12 13 13 12 12 11 12 13 12 13 13 11 11 12 13 12 11 11
14 15 15 15 16 16 16 16 16 17 17 17 17 17 17 18 18 18 18 18 18 19 19 19 19 19 19 18 19 20 19 19 19 18 18 18 18 19 20 20 20 20 21 22 22 21 21 19 17 17 19 17 15 16 16 13 13 14 15 16 16 13 13 12 12 12 12 13 12 12 11 12 13 13 12 12 13 12 12 13 13 13 13 13 13 11 11 11
15 15 15 16 16 16 17 17 17 17 17 17 17 18 18 18 18 18 19 19 19 19 20 20 19 19 18 18 19 20 19 19 19 17 18 18 18 19 20 21 21 21 21 21 21 21 21 19 17 18 19 17 14 15 16 15 14 13 14 17 14 12 12 11 12 12 12 12 12 12 11 12 12 11 12 13 13 12 13 14 13 13 13 14 12 10 11 11
15 16 16 16 17 17 17 17 17 17 18 18 18 18 18 18 19 19 19 19 19 19 20 19 19 18 18 18 19 20 19 19 18 17 18 19 19 20 20 21 21 21 21 21 21 20 20 19 17 17 18 18 14 14 15 13 14 13 13 16 13 12 13 11 11 11 11 12 12 12 11 12 12 11 11 12 13 12 13 14 14 14 14 14 11 9 10 11
16 16 17 17 17 17 17 18 18 18 18 18 18 19 19 19 19 19 19 19 19 19 20 19 18 18 18 19 19 19 20 19 18 17 18 19 19 20 20 21 21 21 21 21 21 20 21 18 16 17 17 17 16 16 15 12 12 13 11 12 11 11 14 12 10 11 11 11 12 12 12 13 12 11 12 12 13 14 14 14 14 14 13 13 11 9 9 10
17 17 17 17 17 18 18 18 18 18 18 18 19 19 19 19 19 19 19 19 19 19 20 19 19 19 19 19 19 20 19 19 18 18 18 19 20 20 21 21 21 21 21 21 21 20 20 17 17 18 15 14 14 15 14 11 12 14 12 10 10 11 13 11 10 11 11 12 13 12 13 12 12 13 11 11 13 15 14 12 12 12 10 10 9 8 8 9
17 17 18 18 18 18 18 18 18 18 19 19 19 19 19 20 20 20 19 19 19 20 20 20 19 19 19 19 19 19 17 17 17 18 19 19 20 20 21 21 21 21 21 21 20 18 18 18 18 15 14 14 14 13 13 12 13 14 13 11 11 11 12 11 10 11 11 13 12 11 12 12 13 13 10 11 13 14 12 8 8 9 8 7 7 7 8 9
17 18 18 18 18 18 18 18 18 19 19 19 19 20 20 20 20 20 20 20 19 19 20 20 19 19 20 20 19 18 16 17 17 18 19 19 20 21 21 21 20 21 21 19 18 17 17 18 17 14 15 15 14 14 13 14 14 13 12 11 11 11 10 10 10 11 12 12 11 11 13 13 12 11 10 12 13 14 11 7 7 7 7 8 8 8 7 8
18 18 18 18 18 18 19 19 19 19 19 19 20 20 20 20 20 20 20 20 20 20 20 20 20 20 20 19 18 18 17 17 17 18 19 20 20 21 21 20 20 21 20 18 17 18 18 17 15 15 15 13 13 14 12 15 15 12 12 12 12 11 10 11 12 12 12 12 11 12 14 13 11 10 12 13 14 14 11 10 10 9 10 11 10 7 6 7
18 18 19 19 19 19 19 19 19 20 20 20 20 20 20 20 21 20 20 20 20 20 20 20 20 20 20 19 18 18 17 18 18 18 20 20 21 21 21 20 20 21 19 17 16 17 18 16 14 14 15 13 12 12 12 14 14 11 11 12 11 11 11 12 12 12 12 12 11 13 14 13 11 11 14 14 14 13 12 13 13 12 13 12 10 7 6 7
19 19 19 19 19 19 19 19 19 20 20 20 20 20 21 21 21 20 20 20 21 21 20 20 20 20 19 18 17 17 18 18 17 19 20 21 21 20 20 20 20 21 18 15 15 15 16 15 13 14 15 14 12 12 11 12 12 11 12 13 12 12 12 12 13 12 12 13 11 12 13 13 11 11 14 14 13 12 13 14 13 12 12 12 11 7 6 7
19 19 19 19 19 19 19 19 19 20 21 21 21 21 21 21 21 20 20 21 21 21 21 21 20 19 19 17 17 17 18 18 17 18 19 20 20 19 19 20 20 20 19 15 14 15 16 15 15 16 16 14 13 13 12 11 12 12 13 14 13 13 14 13 13 12 12 13 11 12 13 13 12 12 14 14 12 11 12 14 13 13 12 11 11 8 6 6
19 19 19 19 19 19 19 19 20 20 21 21 21 21 21 21 21 21 21 21 21 21 21 21 20 20 19 18 17 18 18 18 18 18 18 19 18 18 19 19 19 19 19 16 14 15 15 16 16 15 14 13 13 13 13 12 12 13 12 13 13 13 14 13 13 12 12 12 11 12 14 16 15 13 14 12 11 11 12 13 13 12 12 11 10 9 8 6
19 19 19 20 20 20 20 19 20 20 21 21 21 21 21 21 21 21 21 21 21 21 21 21 21 20 18 18 18 19 19 19 19 18 18 19 18 18 18 18 18 17 17 16 15 15 16 17 16 13 12 12 13 13 13 13 13 13 12 12 11 13 15 13 12 12 13 11 11 13 13 16 17 15 14 11 10 12 12 13 13 12 12 11 11 10 9 6
20 20 19 20 20 20 20 20 20 20 21 21 21 21 21 21 21 21 21 22 21 21 21 21 21 20 18 18 19 19 19 19 19 18 18 19 18 18 17 18 18 17 17 17 16 16 17 17 16 14 13 12 13 14 14 13 12 11 13 14 11 12 15 14 12 12 13 12 11 13 13 14 16 16 13 9 9 11 12 13 12 12 12 11 11 10 9 7
20 20 20 20 20 20 20 20 19 20 21 21 21 21 21 21 21 21 21 21 21 21 21 21 20 20 19 18 19 19 19 18 18 18 18 19 19 18 18 19 18 18 18 18 18 17 17 16 13 12 14 14 13 14 15 14 14 11 13 16 13 13 14 14 13 11 12 13 11 13 13 14 15 15 13 9 10 11 11 12 12 12 12 11 11 10 10 8
20 20 20 21 21 21 20 20 19 20 21 21 21 21 21 21 21 21 21 21 21 21 21 20 19 20 19 18 19 18 17 17 18 18 18 18 19 19 19 19 18 18 19 19 19 17 15 14 12 12 13 12 11 13 17 16 16 14 13 15 13 13 13 14 14 11 10 12 12 12 12 13 14 14 12 11 11 11 11 12 11 11 11 10 11 11 10 8
20 20 21 21 21 21 20 20 19 20 21 21 21 21 21 21 21 21 21 21 21 21 21 20 19 20 19 18 18 17 17 18 18 18 18 18 19 19 19 18 16 17 19 18 18 16 14 13 13 14 14 12 11 14 18 17 16 16 15 15 14 12 13 14 14 12 10 12 12 12 11 12 13 12 12 12 11 12 12 11 10 11 11 10 10 11 10 9
21 21 21 22 22 21 21 20 20 20 21 21 21 21 21 21 21 21 20 20 20 20 20 18 17 19 18 17 17 17 18 17 18 18 18 18 18 19 18 16 15 16 18 18 16 14 13 14 15 16 15 14 12 12 15 15 14 15 14 14 15 15 14 13 13 11 9 12 12 12 12 12 12 12 13 12 11 11 11 10 9 10 10 10 10 10 10 10
21 21 22 22 22 22 22 21 21 20 21 22 22 22 22 21 20 19 18 17 16 16 17 17 16 17 17 17 17 18 18 18 18 17 18 18 18 18 16 15 16 16 16 16 16 13 12 15 15 14 14 12 11 10 10 11 11 12 13 14 14 14 15 14 13 10 9 12 13 11 11 11 12 12 13 12 11 11 11 10 10 10 9 10 10 10 10 10
22 22 22 23 22 22 22 22 22 22 21 21 22 22 21 20 20 19 16 15 14 14 16 16 16 17 17 16 16 16 17 19 18 17 17 17 17 19 16 15 18 17 14 12 14 14 13 14 13 12 11 10 9 8 8 10 11 11 13 14 14 13 15 14 12 10 9 12 13 10 11 12 12 13 13 11 11 13 13 12 12 11 10 9 9 10 10 9
22 22 22 23 23 22 22 22 22 22 22 21 21 21 19 18 19 19 17 18 16 15 16 15 16 17 16 16 16 16 17 19 18 17 17 17 17 18 16 14 17 16 13 13 15 15 14 14 12 10 9 8 8 7 9 11 11 12 12 13 14 13 13 13 11 10 10 12 13 12 11 13 13 12 13 12 12 14 12 11 12 11 10 10 9 10 9 9
22 22 22 23 23 23 22 22 22 22 22 22 22 21 18 17 18 18 18 20 18 16 16 17 17 17 17 18 17 17 17 17 17 17 16 17 17 16 16 16 15 14 14 15 16 16 16 14 12 9 8 10 10 9 11 13 12 13 13 13 15 12 13 15 13 10 10 10 11 11 11 13 13 14 16 13 10 11 10 9 10 9 10 10 9 10 9 10
22 22 22 23 23 23 22 22 22 21 21 21 21 20 18 18 18 18 18 19 19 18 16 16 16 17 18 17 17 17 17 15 15 17 15 16 15 14 15 15 15 15 13 13 15 15 15 13 10 9 10 12 13 12 12 14 14 13 13 14 14 12 12 14 12 10 11 9 9 11 14 15 16 17 19 14 9 12 11 10 12 10 9 9 9 9 9 9
22 23 23 23 23 23 22 23 22 21 21 20 20 19 18 18 18 18 19 19 20 20 17 16 16 17 17 17 17 16 16 16 15 15 14 14 15 15 14 12 14 17 14 12 14 14 14 10 8 11 13 13 14 14 12 13 15 14 13 13 12 12 12 12 11 11 14 14 10 11 16 19 17 17 19 15 12 16 14 12 16 14 10 9 10 10 9 9
22 23 22 23 23 23 23 23 22 21 21 20 20 19 18 19 18 19 21 21 21 20 19 19 19 18 18 17 14 13 16 18 15 14 14 14 14 14 15 13 13 16 14 12 13 15 14 10 9 13 14 14 14 14 12 11 15 15 13 11 11 11 11 11 12 13 16 17 11 10 15 17 16 17 18 14 13 17 15 14 17 15 12 10 10 10 10 9
22 22 22 23 22 23 23 23 22 21 22 21 20 19 19 19 19 19 21 21 20 19 20 21 19 19 19 15 12 15 19 18 15 15 14 14 13 14 17 16 14 14 10 11 16 15 14 14 13 13 14 14 14 14 12 10 14 16 11 10 10 10 11 11 12 14 14 13 12 11 13 14 14 16 14 11 14 17 17 17 18 16 14 12 11 10 9 10
21 22 22 22 22 23 23 22 22 21 21 21 20 19 19 19 19 20 21 21 20 19 19 20 19 19 18 14 13 16 17 15 17 17 13 14 14 15 18 16 15 14 9 13 20 16 13 16 15 14 14 15 14 14 11 10 14 14 9 8 9 9 10 10 12 13 10 12 15 13 12 13 14 16 13 11 14 18 18 18 18 17 16 14 13 11 9 9
21 21 22 22 22 22 22 22 22 20 20 20 19 20 20 20 19 20 21 20 20 20 19 19 20 18 15 15 15 15 15 14 16 16 13 14 14 15 16 14 13 14 10 12 19 16 13 13 12 13 14 15 14 12 10 11 14 11 7 7 8 8 9 9 11 13 11 13 18 14 12 14 15 17 16 14 16 18 18 18 17 16 15 15 15 14 12 10
20 21 21 21 21 21 21 21 20 20 19 19 20 20 19 20 20 21 21 20 20 19 17 18 18 15 14 19 19 15 15 15 13 13 13 14 14 13 12 11 12 15 14 14 16 15 11 9 9 11 13 13 12 9 8 10 11 8 8 9 10 10 10 10 10 11 13 16 16 12 11 13 14 16 17 17 17 18 18 18 17 16 15 16 16 15 14 11
20 21 20 21 21 21 21 19 18 19 19 19 20 19 20 20 20 21 20 19 19 18 17 17 15 13 14 17 18 15 15 15 12 14 16 14 14 14 13 13 14 16 18 18 17 15 12 11 11 11 11 10 11 10 8 7 7 8 11 13 14 14 13 13 13 13 16 18 14 10 10 12 13 16 18 18 16 15 15 16 17 17 16 16 17 16 13 10
21 21 21 21 21 21 21 19 18 19 19 19 19 18 21 21 20 20 19 18 19 18 17 16 14 13 13 14 15 14 14 15 13 13 14 12 13 12 12 14 14 17 19 18 17 17 15 15 13 11 10 9 12 15 12 9 10 12 14 16 17 17 15 17 17 15 16 16 12 9 11 12 13 15 17 17 17 16 14 14 15 16 15 16 17 16 11 8
20 20 21 21 21 21 20 19 19 19 19 19 19 20 22 22 20 18 17 19 18 15 14 14 13 12 13 16 16 13 13 15 13 12 11 11 13 11 9 8 9 14 18 15 16 18 18 16 14 14 13 10 12 17 16 14 14 15 15 15 16 16 15 16 15 13 15 15 12 8 10 13 14 16 17 17 19 18 14 12 13 13 13 14 13 11 8 7
20 21 21 20 20 20 19 19 19 19 18 19 21 23 22 21 19 16 17 18 15 13 12 12 13 14 14 16 15 12 15 15 12 12 13 13 16 15 12 10 9 11 14 15 15 16 19 19 16 16 14 11 12 13 14 14 13 12 11 13 16 15 15 16 15 14 14 14 11 9 12 15 17 18 17 16 16 14 11 10 9 9 9 8 8 7 7 8
21 21 20 19 19 18 18 18 18 19 19 20 22 23 21 21 19 17 18 16 14 14 13 11 14 18 17 16 13 10 14 16 13 13 15 15 16 15 14 13 10 10 13 16 15 13 17 19 15 12 10 11 12 10 9 13 14 10 8 12 16 14 14 14 12 11 11 10 11 11 13 14 15 17 15 13 14 13 11 10 10 11 10 7 8 10 11 10
21 21 20 19 18 17 18 18 18 18 19 21 23 22 19 18 16 16 15 13 13 15 16 15 16 19 20 17 15 12 12 14 14 15 15 14 13 13 12 12 9 9 12 15 15 14 17 18 13 10 10 9 10 9 8 12 15 12 11 14 12 9 13 14 10 8 7 10 12 12 14 14 13 17 16 14 17 17 15 14 13 14 13 11 12 14 13 12
21 20 19 17 17 18 17 17 18 18 19 22 23 19 15 13 12 11 10 10 11 12 16 19 17 17 19 18 18 16 14 13 14 16 16 14 13 13 12 11 9 8 9 11 13 13 15 17 13 11 13 10 6 8 9 9 11 13 14 14 10 8 11 12 12 11 10 12 13 12 14 14 13 16 18 17 18 19 18 17 15 15 15 14 15 15 13 12
20 19 18 17 17 18 17 18 17 18 20 22 20 15 13 12 9 8 8 8 10 11 17 20 16 15 17 18 18 15 14 16 16 16 16 15 15 13 12 12 10 7 6 7 12 12 11 17 15 9 12 11 6 9 12 9 8 11 12 11 11 13 14 12 12 14 12 12 13 12 12 12 12 15 18 18 18 18 17 16 15 16 16 15 15 14 12 11
20 21 20 17 17 18 17 18 16 18 23 22 18 15 12 11 8 6 6 7 10 13 17 17 15 14 15 16 17 15 13 16 17 16 16 16 15 13 11 12 10 8 6 7 11 11 10 16 18 11 9 11 10 12 15 13 10 10 10 10 10 12 13 12 11 12 12 13 13 12 12 14 15 15 17 19 17 17 17 16 16 16 15 15 13 12 11 10
19 23 22 17 17 18 17 18 17 18 21 18 14 14 11 10 8 5 4 6 9 13 15 15 14 15 16 14 14 14 13 14 14 15 16 15 15 14 10 10 11 9 7 7 10 11 10 13 17 14 10 12 14 14 14 15 13 11 12 12 11 10 9 10 10 9 11 13 12 11 13 15 16 15 16 17 17 17 16 16 16 15 14 13 12 11 10 10
18 24 22 17 18 18 17 19 15 13 15 13 11 12 10 10 10 7 5 5 8 9 10 12 14 15 16 15 14 13 13 14 13 14 16 14 15 16 10 6 9 9 8 10 10 10 11 12 14 15 14 16 16 11 9 11 12 12 14 14 13 12 11 12 12 8 8 11 11 10 11 14 15 15 16 16 17 17 16 14 14 14 14 13 11 10 10 9
20 24 21 18 19 17 18 19 11 7 13 13 11 11 9 9 10 9 7 6 8 9 8 10 12 13 14 15 14 12 13 15 14 14 16 14 15 15 8 2 5 7 9 11 10 8 9 11 12 14 14 15 12 7 5 7 8 10 11 11 11 12 13 14 14 10 8 8 8 7 9 13 15 16 17 17 16 15 14 12 12 13 12 12 11 10 10 9
22 23 21 18 18 17 20 20 13 10 12 10 8 8 8 8 10 9 8 9 10 10 10 11 11 12 13 13 12 13 14 15 15 15 15 14 12 9 3 0 3 6 9 11 10 8 9 11 12 14 14 12 9 6 5 6 7 10 10 8 9 11 12 12 12 10 10 10 8 8 10 13 16 15 15 15 14 13 12 11 12 12 12 11 11 11 10 9
20 20 19 19 19 20 22 22 18 15 11 9 10 10 8 8 9 10 10 11 10 10 13 13 11 12 12 10 11 13 13 15 16 14 12 14 11 3 -1 -1 2 6 8 9 9 9 11 13 13 14 16 15 13 12 11 9 9 11 11 8 8 9 9 9 8 8 10 11 10 11 12 14 15 14 14 14 14 14 13 12 12 12 12 12 11 11 10 9
19 19 19 19 17 17 17 15 16 17 13 12 14 12 11 10 8 8 10 10 8 8 12 12 9 10 10 9 11 12 11 13 16 13 11 12 10 3 -1 -1 1 5 5 2 3 6 10 12 12 15 16 16 17 17 16 14 12 11 11 8 7 8 9 10 10 9 10 10 9 11 13 14 16 15 15 15 14 14 14 13 13 12 12 12 11 10 10 8
21 21 21 20 16 13 11 8 11 17 15 15 17 13 13 14 10 6 7 10 8 7 9 10 9 10 11 11 14 14 11 11 12 12 13 14 12 6 -0 -2 -0 2 2 -0 1 5 9 10 10 14 15 15 17 17 14 13 12 12 12 10 9 8 8 10 10 10 10 9 9 11 12 13 14 15 15 15 14 14 14 13 13 13 12 11 10 10 9 8
20 18 16 19 18 16 14 10 11 14 14 15 17 14 13 15 14 10 9 9 8 7 9 10 9 12 14 14 15 15 13 11 11 12 13 12 11 6 -0 -2 -0 0 1 1 2 5 10 11 10 11 13 13 14 14 11 10 11 12 12 11 10 8 7 9 10 10 10 10 11 12 12 11 13 13 14 14 14 14 14 13 13 12 11 11 10 9 8 7
17 16 11 13 16 17 17 14 11 12 13 12 12 12 14 16 16 15 12 9 8 8 11 13 12 12 13 13 15 16 15 14 14 14 13 11 10 9 6 3 1 -1 1 3 3 5 10 11 9 9 10 11 11 10 9 9 9 9 10 10 9 8 7 9 10 10 10 11 12 13 12 11 12 13 13 13 13 13 13 12 11 11 10 10 9 8 8 8
14 15 11 10 13 13 12 10 10 13 14 13 13 13 15 17 16 15 12 11 12 10 11 16 16 12 11 11 13 16 16 16 16 15 14 12 11 12 13 10 4 -0 1 5 5 5 8 10 8 7 8 10 9 9 8 8 8 9 9 9 8 8 8 8 9 9 9 10 11 11 11 10 11 12 12 12 12 12 11 11 10 10 10 10 9 9 9 8
15 16 14 13 13 11 9 8 11 16 16 14 16 15 12 15 16 13 11 13 17 14 11 15 15 12 10 10 12 15 14 14 15 14 12 13 12 11 13 13 9 4 3 6 5 5 8 10 7 6 9 10 9 10 9 8 8 9 10 10 8 8 8 7 7 7 7 8 9 8 8 8 10 11 11 11 11 10 10 10 10 11 11 10 10 10 9 9
13 13 14 18 16 11 11 11 12 17 18 15 16 15 13 15 14 12 12 11 13 15 13 13 13 11 10 10 11 14 12 9 12 11 10 11 12 11 11 11 10 8 6 5 5 6 8 9 8 8 11 12 10 9 10 9 8 9 12 13 11 10 9 8 6 6 7 9 9 8 9 10 11 12 12 12 12 11 11 12 12 12 12 11 10 10 10 9
12 11 12 17 17 12 12 14 14 17 17 14 13 13 13 14 10 10 15 12 8 10 10 10 12 11 12 13 13 12 9 7 7 6 5 6 6 7 8 7 7 9 9 6 5 5 5 8 9 8 10 13 11 8 9 10 11 14 16 16 14 13 11 9 8 7 7 9 11 11 12 14 13 12 12 13 13 13 13 13 12 12 12 11 10 10 10 9
Height
817 816 817 817 816 817 817 817 817 817 817 817 817 817 817 816 816 816 815 814 814 812 811 811 810 809 809 809 809 810 809 808 807 805 807 813 813 811 809 808 808 806 806 805 805 805 805 806 806 806 804 808 817 820 820 826 828 827 836 845 852 863 863 861 868 867 864 867 870 871 873 871 870 872 872 872 871 871 871 870 868 868 867 866 866 867 867 867
817 817 817 817 817 818 817 818 818 818 818 818 817 817 817 816 816 815 815 814 813 812 812 811 810 809 808 808 808 808 809 808 806 807 811 814 813 811 810 809 808 807 806 805 806 805 806 808 808 807 809 816 824 822 822 828 830 836 845 845 852 862 862 862 864 865 865 865 868 871 873 871 868 871 872 871 871 873 872 869 869 868 866 865 865 866 866 866
817 817 818 818 818 818 818 818 818 818 818 818 818 817 817 816 816 815 814 814 813 812 812 811 810 808 806 806 806 807 809 808 808 812 814 814 812 811 810 809 809 808 807 806 806 806 807 809 808 809 813 821 829 826 826 831 836 844 846 845 857 863 863 867 865 864 865 864 868 871 873 872 870 872 872 871 872 874 871 867 868 867 865 864 864 865 865 865
818 818 818 819 819 819 819 819 818 818 818 818 818 817 817 816 815 815 814 814 813 813 813 812 810 807 806 804 805 808 808 810 815 818 816 814 813 812 811 810 809 808 808 807 807 807 807 808 808 812 816 824 832 831 833 839 839 845 850 851 860 863 862 865 866 866 866 867 869 870 872 871 871 874 873 872 872 872 869 865 865 864 863 863 864 864 864 864
819 819 819 819 819 819 819 819 819 819 818 818 817 817 816 815 815 814 814 814 813 813 813 813 810 808 807 805 807 807 808 817 822 819 816 815 813 812 811 810 809 809 809 808 808 808 808 809 810 815 823 829 833 832 840 848 844 850 862 863 864 864 860 865 868 867 868 869 870 871 870 869 872 873 872 872 869 866 864 862 863 863 862 862 863 864 863 864
819 819 819 819 819 819 819 819 819 819 818 818 817 817 816 816 815 815 814 814 812 812 813 812 810 809 808 808 809 807 812 825 825 819 817 816 813 813 811 810 810 809 809 809 809 809 810 811 813 821 832 839 841 840 846 851 847 851 864 867 866 864 861 866 870 867 868 868 868 870 868 870 872 870 872 872 865 862 861 861 862 862 862 862 862 863 862 863
819 819 819 819 820 820 820 820 819 819 819 818 817 817 816 816 816 815 815 814 812 812 812 812 810 811 810 810 810 809 817 826 824 820 818 815 814 813 812 811 810 809 810 810 810 811 814 814 819 830 836 841 846 847 850 851 848 851 860 866 866 865 865 869 870 869 869 867 868 871 869 870 869 869 874 871 863 861 861 860 861 861 861 861 861 861 861 861
819 820 820 820 820 820 820 820 820 819 818 818 817 817 817 817 816 816 815 814 813 812 812 812 812 811 811 811 811 814 822 826 824 820 818 816 814 813 812 812 811 811 811 811 813 813 816 819 824 832 837 843 846 848 851 849 850 856 861 866 866 867 870 871 871 870 870 870 872 872 869 869 870 873 873 865 859 859 860 860 860 860 860 860 860 859 860 861
820 820 820 820 820 820 820 820 819 819 818 818 818 818 817 817 817 817 816 816 815 814 814 813 813 812 812 813 810 817 827 828 825 821 818 817 815 814 813 813 812 812 811 813 815 813 816 823 827 829 835 846 848 849 852 847 852 862 865 866 866 869 872 871 870 871 871 872 873 871 868 870 873 874 866 857 856 857 858 859 858 859 858 858 859 858 859 860
820 821 820 821 820 820 820 819 819 819 818 818 818 818 818 818 818 818 817 817 816 816 815 814 813 812 813 812 811 823 832 829 826 822 819 817 815 815 813 813 814 813 813 814 815 815 816 822 827 827 832 845 851 854 855 851 857 866 867 867 868 870 871 870 870 872 872 872 873 871 868 869 873 874 862 851 853 856 856 857 857 857 857 857 858 858 858 858
821 821 821 821 820 820 820 819 819 819 819 818 819 818 818 819 818 818 818 817 818 817 817 816 815 814 813 812 817 830 833 828 827 823 820 818 815 816 815 815 815 813 814 816 818 819 819 822 825 826 832 844 852 857 859 860 864 867 865 866 870 870 869 871 870 872 872 871 873 873 870 869 873 872 858 849 853 856 855 854 855 856 856 856 857 857 857 857
821 821 821 821 821 821 820 820 819 819 819 819 819 819 819 820 819 819 819 818 818 818 818 817 816 816 812 813 824 834 832 829 829 825 822 820 818 819 818 818 817 816 816 818 823 823 823 825 823 826 838 846 853 858 861 865 865 866 865 866 870 870 869 870 871 873 872 871 873 874 870 865 867 864 850 849 854 855 855 853 853 854 854 855 855 856 855 855
822 821 822 821 821 821 820 821 820 820 820 819 820 820 820 820 820 820 819 819 819 818 819 817 817 815 810 820 832 833 832 832 830 827 825 823 822 823 822 821 820 820 818 819 824 825 825 826 824 831 842 848 856 858 859 865 865 866 870 869 872 872 870 870 871 874 872 873 874 874 870 855 853 855 847 851 855 854 854 852 852 852 852 853 853 854 854 853
822 822 822 822 822 822 821 821 820 820 820 820 820 820 821 821 821 821 820 820 820 819 819 818 818 814 813 827 836 832 833 834 830 829 828 827 826 825 826 825 823 824 823 823 826 828 828 827 825 834 847 850 856 857 859 867 867 870 873 876 883 877 868 870 874 873 871 874 874 874 874 855 844 847 847 853 855 853 852 849 850 850 850 851 851 852 851 851
822 823 822 822 822 822 822 821 821 821 820 821 821 821 822 821 821 821 821 821 820 820 820 819 818 816 820 831 835 833 834 832 831 831 831 831 828 828 831 829 828 828 827 827 829 831 831 828 830 842 852 854 856 858 863 868 871 878 873 872 889 883 869 870 873 874 870 873 875 873 872 859 847 844 846 853 854 853 850 847 849 848 848 849 848 849 848 848
823 823 823 823 823 822 822 822 822 821 821 822 822 822 822 822 823 822 822 822 821 821 820 820 820 819 826 834 834 834 835 834 834 834 834 834 831 832 833 831 831 831 830 831 832 834 831 832 842 853 856 857 863 862 863 867 871 881 876 868 878 878 871 870 870 875 873 871 874 872 869 860 848 843 846 852 852 852 850 846 847 845 845 847 845 846 846 846
823 823 823 823 823 823 823 823 822 822 822 822 823 823 823 823 823 822 823 822 822 822 821 822 822 821 829 835 835 836 837 836 836 836 835 835 834 834 834 833 833 832 832 833 833 835 835 840 851 857 861 868 873 866 858 865 867 873 877 871 876 879 875 869 866 875 878 874 873 873 873 861 848 845 846 848 849 851 849 844 845 844 843 845 844 843 843 844
824 823 824 823 824 824 824 824 824 823 823 824 824 825 824 825 824 823 824 822 822 822 822 824 822 827 837 838 838 840 839 838 838 837 836 836 836 835 835 835 835 835 835 836 838 841 842 850 856 857 863 869 873 867 857 864 867 866 870 868 873 879 878 872 867 873 877 873 873 873 872 861 850 848 844 844 849 848 844 843 843 842 842 843 842 841 841 841
824 824 824 824 825 825 825 825 825 824 824 824 825 825 825 825 823 823 824 824 825 828 832 835 832 838 846 843 841 841 839 839 838 838 837 837 837 836 837 838 838 838 839 842 845 850 851 853 856 858 863 868 875 875 866 869 871 868 872 871 869 870 871 871 869 875 880 873 871 871 868 860 852 847 841 841 847 846 843 844 843 841 841 841 840 838 838 838
824 824 824 824 825 825 826 826 826 826 825 825 825 825 826 828 830 834 833 831 834 839 841 843 841 844 846 843 842 841 840 840 839 839 838 837 837 837 839 840 842 844 849 853 852 856 858 859 866 868 870 874 878 883 882 881 881 877 876 873 873 872 865 865 869 878 882 872 866 870 869 863 855 846 840 840 845 843 840 840 839 839 838 838 837 835 834 834
824 824 824 824 825 826 826 826 827 826 825 826 825 826 828 830 834 839 840 839 842 842 841 843 843 843 844 845 843 842 841 839 839 840 839 839 837 838 844 845 844 849 859 864 859 859 860 865 875 876 878 882 883 889 888 883 882 880 876 870 873 876 867 866 873 877 881 873 866 872 870 857 850 844 838 841 841 835 833 834 832 833 836 836 835 833 831 832
823 823 823 824 824 825 826 826 826 825 825 826 826 827 828 827 829 832 833 839 844 843 843 844 843 844 845 844 844 843 842 842 842 841 840 840 837 840 849 851 852 858 864 864 860 861 864 869 876 879 885 887 888 892 885 878 880 878 878 874 870 875 872 868 874 878 880 874 863 868 866 850 843 841 836 837 836 831 833 834 830 831 832 832 832 830 829 830
822 823 823 823 824 824 825 825 825 825 825 826 826 827 827 827 829 829 829 836 843 845 844 843 843 845 845 844 845 843 843 849 849 845 843 841 842 847 851 854 859 863 866 863 859 861 864 869 876 884 887 881 880 887 880 875 879 877 876 873 869 876 874 863 868 877 879 878 871 869 868 851 839 834 827 833 838 834 836 835 833 834 831 828 829 828 827 826
822 822 821 822 822 823 824 824 824 825 824 826 826 827 828 828 829 829 831 837 843 844 845 844 845 846 847 847 847 845 847 853 854 850 847 845 848 852 853 858 861 863 870 870 866 866 867 873 882 885 882 875 872 876 876 871 872 876 875 872 871 875 874 868 873 879 876 881 882 869 856 841 833 829 820 828 839 831 831 832 826 828 830 828 828 826 825 824
821 820 821 821 821 822 823 823 824 824 825 826 827 828 829 829 830 830 832 840 844 844 845 845 846 847 848 848 847 848 850 853 855 853 851 850 851 853 858 865 861 860 870 874 872 868 870 881 886 878 874 873 870 871 876 873 867 871 873 874 874 873 875 876 877 875 863 863 875 870 852 834 829 829 821 826 833 823 825 829 819 819 826 827 826 822 821 822
819 819 820 820 821 822 823 824 825 825 826 827 828 830 830 830 831 830 832 844 851 850 848 845 848 849 848 849 850 850 850 852 855 854 852 852 852 852 857 865 865 862 869 874 872 868 871 881 883 873 869 871 871 872 877 878 869 867 873 878 879 878 879 879 874 868 856 855 871 875 860 846 836 826 823 832 832 821 822 823 815 817 822 823 823 820 818 818
818 819 819 820 821 822 822 824 824 826 827 828 829 830 830 831 831 829 835 851 858 856 851 848 849 850 850 853 853 851 853 855 854 854 854 852 852 852 852 860 864 866 876 874 865 866 869 871 873 872 869 870 871 869 875 881 869 864 878 883 880 879 879 879 873 866 867 866 870 874 866 862 852 831 831 842 832 819 817 814 811 813 816 819 819 818 816 814
818 819 819 820 821 821 822 823 823 826 826 827 829 830 831 831 830 831 841 859 864 856 854 852 849 850 852 854 855 855 858 860 855 853 855 853 852 852 852 861 863 865 877 871 856 865 871 866 868 871 870 869 868 869 876 880 868 868 885 887 883 884 881 881 874 868 882 874 857 866 870 865 853 831 833 843 829 817 813 809 809 809 810 813 813 814 814 811
819 819 819 820 821 822 823 822 823 825 826 827 829 830 831 830 830 836 847 863 864 855 857 855 849 854 858 855 857 861 861 861 860 857 856 855 854 853 856 864 866 865 874 871 857 863 871 871 873 872 870 869 868 874 879 875 869 877 891 889 887 890 885 884 876 869 880 868 848 862 871 862 849 827 824 832 823 815 811 807 808 809 810 810 809 809 809 809
819 819 820 820 821 822 823 824 825 825 826 828 828 830 831 830 835 845 856 865 863 861 862 857 857 866 865 856 857 865 864 864 868 863 858 859 856 857 864 867 866 863 866 868 862 865 875 880 880 875 871 872 873 881 886 879 876 883 887 882 880 883 882 883 883 877 869 855 853 870 873 866 855 830 818 820 814 809 808 806 806 806 808 807 805 806 805 807
820 820 821 821 822 823 823 825 825 826 827 828 829 830 830 836 845 853 863 866 864 865 864 864 871 875 872 867 865 869 868 867 872 866 860 864 863 862 865 864 865 862 858 860 861 866 874 874 873 874 874 877 874 876 885 887 886 884 876 868 863 866 870 869 870 872 861 849 861 879 877 872 862 833 813 811 811 812 811 807 804 803 804 803 802 802 804 807
821 821 821 822 822 822 823 825 826 827 828 828 830 829 833 843 852 861 868 866 864 869 870 872 877 877 878 878 875 876 874 870 874 874 873 877 876 878 878 876 875 866 859 865 865 862 864 864 869 873 875 879 870 864 873 880 879 871 864 861 858 861 865 859 857 865 861 853 867 883 876 866 856 831 813 809 806 806 811 809 805 804 804 801 800 800 803 807
823 823 822 822 823 823 824 825 827 827 828 829 829 832 838 846 856 873 877 866 868 877 879 880 881 881 880 873 873 882 879 873 876 880 884 884 880 886 893 896 893 876 866 875 873 861 856 860 866 866 868 876 870 860 862 866 867 864 864 865 864 870 875 868 871 878 868 857 870 889 879 857 840 820 809 807 799 798 807 811 809 808 806 803 803 805 806 806
825 824 823 824 824 824 826 827 828 829 829 829 830 836 843 849 864 880 876 870 878 883 884 885 881 879 877 872 879 886 877 874 881 880 880 878 874 877 884 891 896 888 878 878 880 874 863 857 861 862 866 873 871 869 868 868 871 875 881 876 866 872 875 871 872 870 867 867 874 882 869 843 825 808 801 804 802 804 810 813 815 812 811 811 809 809 806 802
825 825 825 825 826 827 828 828 829 829 829 830 835 841 847 856 870 876 871 875 882 880 883 888 879 869 871 877 886 891 881 875 881 880 876 876 876 878 880 884 892 893 882 873 881 888 873 861 866 873 876 876 872 878 881 872 870 883 891 877 866 872 872 877 889 888 891 890 878 869 853 836 824 806 803 809 804 806 810 810 812 807 806 812 808 803 801 798
825 825 825 826 828 828 828 828 829 829 831 832 837 847 860 870 876 877 879 884 883 879 877 878 874 866 866 874 880 887 888 882 880 878 876 882 886 886 887 888 894 896 887 878 881 885 871 860 870 877 877 881 880 880 883 873 866 878 881 870 877 889 876 875 895 908 912 895 871 861 844 831 829 806 797 805 797 795 800 801 803 801 801 806 800 795 796 795
825 826 826 828 829 828 829 829 829 829 831 833 840 860 878 885 887 890 892 891 890 888 876 868 875 875 870 872 873 878 884 883 882 877 875 883 884 884 888 890 895 898 896 891 885 885 879 863 869 877 870 878 890 883 880 883 876 872 871 871 885 893 883 879 885 888 895 884 865 860 846 835 839 817 795 798 795 791 795 795 798 798 796 797 794 792 793 792
826 826 827 830 830 829 829 828 830 831 832 839 857 876 886 888 894 899 898 896 893 888 875 868 878 885 880 875 873 881 883 875 876 878 876 879 879 882 887 887 893 900 903 900 886 888 892 867 864 882 876 875 889 880 871 881 884 875 873 879 881 874 872 882 882 873 880 880 863 859 860 850 841 822 799 793 794 794 795 797 797 794 792 792 791 791 792 791
826 827 829 832 831 830 830 829 832 832 831 845 867 880 886 891 898 903 902 900 893 883 877 877 884 888 887 883 878 885 888 877 876 880 877 877 878 882 888 887 891 899 904 902 889 889 896 874 860 876 883 878 878 872 865 871 882 882 879 882 883 878 876 881 886 882 879 877 869 863 857 837 820 813 801 793 794 795 795 795 793 791 791 791 791 791 791 789
827 828 831 834 831 831 832 829 832 836 842 862 878 882 888 892 896 904 904 900 894 886 882 885 887 883 883 888 886 888 891 887 884 881 877 881 879 879 890 892 889 896 902 901 895 891 895 884 866 868 879 875 865 865 864 862 870 876 875 877 880 886 891 886 888 894 883 874 880 879 856 824 807 806 801 794 794 793 793 793 792 790 791 790 791 791 789 787
828 830 833 834 832 833 831 831 847 862 867 880 887 885 890 891 891 900 904 901 897 893 891 889 887 883 881 883 887 890 890 886 887 884 879 883 878 875 893 901 894 896 897 892 893 892 890 887 878 870 868 859 856 873 881 873 872 870 863 866 869 874 883 877 879 898 899 884 883 887 867 827 801 797 797 794 792 791 793 796 793 791 789 788 788 788 787 785
830 836 838 834 832 832 830 843 873 885 877 881 887 888 892 893 892 896 900 900 898 896 896 893 890 889 886 882 886 892 888 882 885 884 879 882 880 878 897 911 905 900 895 889 894 898 895 892 887 875 866 862 869 887 892 886 884 878 871 874 874 870 871 865 866 883 896 895 897 905 887 832 792 791 793 790 792 793 796 799 796 791 789 788 786 784 784 783
835 839 838 834 833 832 833 850 875 883 882 889 895 895 897 896 893 895 897 896 895 895 893 891 891 890 888 889 891 890 887 881 880 881 881 883 887 894 908 916 909 901 895 891 894 899 896 891 885 872 863 868 880 889 892 891 888 877 873 881 879 871 870 870 873 879 881 884 889 897 879 822 785 791 794 791 796 797 797 800 796 791 788 786 783 782 781 780
841 841 840 836 831 829 837 852 864 875 887 892 891 892 896 897 896 894 893 893 895 895 889 889 894 892 892 898 895 889 889 882 876 883 888 884 890 908 918 918 911 903 897 894 895 897 890 883 882 873 861 859 863 868 872 878 880 869 868 882 882 877 881 882 886 889 878 869 869 871 856 815 787 793 796 793 795 792 791 794 793 790 786 782 780 779 778 778
841 841 842 841 835 836 852 866 867 872 885 885 883 889 891 893 898 899 896 896 901 901 892 892 899 897 898 901 894 894 898 888 879 887 893 888 893 909 918 917 914 906 905 910 909 901 890 885 883 874 867 865 857 852 851 857 867 867 868 880 883 881 879 872 876 882 872 869 872 860 837 808 789 789 790 789 792 790 788 788 787 788 784 781 780 778 777 778
842 845 849 847 845 851 868 882 876 871 878 878 877 888 890 886 894 903 900 896 900 904 898 897 900 897 895 895 888 889 896 896 893 891 888 883 886 902 916 917 915 911 910 914 913 903 895 892 887 874 867 864 852 846 853 859 861 860 861 870 876 881 881 873 873 873 866 873 872 846 828 818 803 794 790 788 790 789 786 785 783 783 781 780 780 778 777 777
848 860 867 860 856 861 870 880 882 877 880 879 878 888 891 885 888 896 897 896 900 903 898 897 899 891 886 888 885 883 889 895 896 891 887 886 887 901 916 917 915 914 912 912 910 904 893 885 885 880 868 862 856 854 864 870 864 859 860 862 867 877 883 876 868 861 859 865 852 827 828 831 813 798 795 792 791 788 786 784 782 781 780 779 779 778 777 775
856 869 881 872 869 874 873 877 887 886 885 887 890 894 890 884 885 886 891 898 901 902 894 889 893 892 889 890 885 881 884 885 884 883 886 890 891 893 899 907 914 916 913 911 909 905 894 882 885 888 875 870 872 869 873 878 873 869 867 864 867 876 878 868 858 856 858 852 832 818 826 829 813 802 797 792 791 791 787 785 784 783 781 778 777 777 775 772
864 870 880 877 877 887 888 889 892 886 883 887 890 893 889 884 885 889 895 895 892 898 897 883 884 893 897 896 889 882 882 881 879 881 883 887 890 887 881 887 905 917 914 907 908 909 897 884 893 900 885 876 877 873 876 880 876 871 866 862 867 872 870 864 857 856 858 849 832 826 832 829 812 801 798 792 791 793 789 787 787 782 778 776 774 774 772 769
865 867 874 876 880 891 895 895 890 879 882 887 884 890 896 889 886 892 897 891 883 891 897 888 886 895 899 900 894 885 886 888 884 885 887 887 888 888 882 878 891 909 911 905 908 910 897 887 898 902 883 871 874 872 872 877 877 869 856 851 861 866 866 868 866 863 863 855 843 842 847 837 811 797 799 797 792 792 789 786 783 777 775 775 772 770 768 765
866 868 870 868 878 890 890 891 889 877 879 887 885 890 894 889 892 896 894 895 892 888 892 892 891 896 899 900 895 888 892 897 891 890 894 890 887 888 886 884 889 895 901 907 908 905 899 893 896 897 878 862 867 872 869 871 874 864 844 835 844 852 852 857 862 861 855 846 842 846 843 824 801 794 796 792 788 788 783 780 778 772 770 772 770 767 764 761
868 869 869 866 877 892 891 888 887 880 883 893 893 893 892 891 901 899 887 892 901 897 897 898 895 894 892 890 890 891 896 901 898 898 901 899 897 897 894 895 895 891 894 905 907 908 909 897 891 897 881 858 865 877 871 863 855 839 825 820 825 833 838 843 847 849 845 836 830 825 814 800 794 796 794 786 782 780 775 774 776 772 768 768 767 765 762 758
Wind_Speed
2 2 3 4 5 5 6 6 6 5 4 3 2 3 3 4 6 7 7 8 8 9 7 6 8 10 11 10 4 4 4 17 25 31 25 18 24 19 14 11 10 11 8 6 5 6 7 9 10 10 9 9 6 4 4 4 4 5 4 5 4 3 4 6 7 6 4 5 6 5 4 6 4 2 1 1 3 2 3 5 4 4 6 8 7 4 4 3
4 4 5 6 6 6 6 6 5 4 4 3 3 3 4 5 6 7 7 8 8 8 6 6 10 12 13 11 4 7 3 14 25 27 23 22 23 14 10 10 9 10 7 6 6 6 7 3 5 10 8 4 4 5 4 4 5 4 3 5 3 5 3 4 7 6 4 6 7 5 4 4 5 3 1 1 2 4 3 5 5 5 9 10 7 2 2 4
5 6 6 6 6 6 6 5 5 4 3 3 3 3 5 7 7 7 7 8 8 7 6 7 10 12 11 8 4 11 8 10 19 17 23 24 18 10 9 8 8 9 6 8 9 10 10 6 7 9 6 4 4 4 5 5 4 3 4 5 2 5 2 1 5 5 3 7 9 5 3 2 2 1 1 3 3 2 3 5 3 5 8 8 5 1 4 5
6 6 6 6 6 5 5 5 4 4 3 3 4 5 7 7 7 7 8 8 7 6 6 8 8 7 6 2 7 12 7 7 9 14 23 22 14 9 7 5 7 7 7 11 13 13 13 12 13 9 6 5 5 4 5 5 2 3 3 3 3 4 4 1 3 4 2 7 8 5 5 2 3 1 0 4 3 3 6 7 7 7 8 8 6 2 5 5
6 6 6 5 5 5 5 4 4 3 3 3 4 6 7 7 7 8 8 7 6 5 6 14 16 14 14 12 8 8 4 5 7 19 24 18 12 8 5 4 5 4 7 10 10 9 9 10 11 8 6 5 6 5 4 5 3 5 3 1 3 3 4 1 2 5 5 7 6 5 5 3 2 1 2 7 6 5 6 7 9 9 8 7 4 0 4 5
5 5 5 5 4 5 4 4 3 2 2 4 5 6 6 7 8 10 11 10 8 5 9 15 20 22 23 21 17 10 7 3 11 22 21 15 10 8 6 3 2 4 5 5 5 6 7 9 9 6 5 4 6 6 3 6 4 5 2 3 2 2 4 1 3 5 5 8 7 5 4 3 3 3 2 7 8 7 6 6 7 8 8 6 4 3 5 6
5 4 4 5 4 4 3 3 1 1 3 5 6 6 6 8 11 14 15 16 15 9 10 10 10 12 14 18 25 21 9 2 16 23 17 12 8 7 7 4 3 5 4 4 7 6 6 10 9 4 5 5 4 5 3 5 7 7 3 3 5 4 4 1 3 4 5 7 6 3 2 3 4 3 1 5 11 9 9 6 5 8 7 5 4 6 7 8
4 4 5 4 4 3 2 1 1 3 4 5 5 5 7 10 13 15 16 18 19 15 8 5 3 3 7 6 12 14 6 8 20 21 12 9 8 5 5 5 4 5 7 9 8 7 6 9 7 5 5 4 3 3 2 6 9 7 3 0 3 4 4 3 5 5 4 3 1 3 3 4 5 3 1 7 11 10 9 6 6 5 2 3 5 6 8 8
5 4 4 4 3 1 1 2 3 3 3 3 4 6 9 10 11 12 14 16 19 20 16 8 2 2 4 3 4 8 7 13 18 15 9 7 8 5 4 6 5 7 10 10 5 6 4 3 3 5 6 3 4 3 3 4 4 2 2 2 4 3 3 4 5 5 3 1 1 3 4 5 2 1 5 10 12 8 5 5 4 2 1 3 4 6 9 9
4 4 3 2 0 0 1 2 2 2 3 5 6 9 10 9 9 11 13 16 18 20 22 20 13 7 6 1 5 8 8 14 16 13 12 9 7 8 8 7 4 7 12 12 9 6 6 8 7 10 10 5 4 4 4 4 4 2 5 6 6 3 3 5 4 2 3 1 1 3 6 5 2 2 5 9 9 6 3 5 4 3 4 5 4 7 10 11
3 2 2 2 4 5 5 5 4 4 5 7 8 10 9 7 8 9 11 14 16 17 18 20 21 21 20 12 9 7 7 13 17 18 18 14 15 17 16 11 10 18 23 20 17 15 18 19 15 11 6 3 5 6 6 4 4 3 6 7 7 5 4 5 4 2 3 0 2 2 4 7 2 0 9 11 4 4 7 8 6 5 6 5 5 6 9 12
3 5 7 8 9 8 7 6 5 5 6 8 9 9 7 6 6 7 8 10 11 12 10 12 12 11 20 20 9 4 9 14 16 22 23 21 24 24 20 18 18 24 27 18 11 13 15 12 13 10 2 4 5 5 4 2 4 4 6 6 7 8 4 2 1 2 2 0 3 3 4 8 4 8 16 9 1 2 6 8 7 7 6 5 6 5 7 11
8 11 11 10 9 8 6 5 5 7 7 9 9 7 5 4 4 4 4 6 8 10 9 11 11 7 12 11 6 9 13 14 17 23 27 26 29 27 24 22 21 21 23 21 14 12 11 14 23 15 3 7 3 2 5 3 5 3 5 5 4 7 4 5 0 2 1 1 2 2 3 7 7 13 16 5 3 3 5 8 7 7 6 5 5 5 6 10
13 12 9 8 8 7 6 5 5 6 7 8 8 7 5 3 3 2 3 6 6 10 11 11 12 13 13 6 5 14 13 13 18 21 23 25 28 30 29 29 29 28 28 29 26 23 22 29 31 14 3 6 4 3 5 5 4 3 4 3 3 2 4 6 1 2 2 1 1 3 2 7 9 12 12 5 5 6 7 10 8 6 7 5 5 6 6 9
12 8 6 7 8 7 6 6 5 6 8 8 7 7 4 2 2 1 3 5 6 7 9 11 9 8 9 5 5 11 12 14 18 18 18 21 25 24 23 28 30 29 31 29 27 25 27 31 23 8 3 4 5 6 5 4 4 4 2 2 3 1 4 7 2 5 4 2 2 2 3 7 10 12 9 2 5 7 8 10 8 7 7 6 6 6 6 8
8 4 4 7 7 7 7 6 6 7 8 9 9 8 6 7 8 9 9 9 9 7 8 11 10 9 6 2 3 7 10 12 13 14 14 15 18 16 15 21 22 22 24 23 20 21 24 23 11 3 4 4 6 6 4 5 4 3 3 1 2 1 3 5 2 2 3 1 2 2 3 6 7 9 6 1 4 5 8 10 9 9 8 7 6 6 6 6
4 1 5 7 7 7 9 9 9 10 10 10 10 7 6 6 5 5 6 8 10 9 11 9 7 10 6 1 3 5 6 9 10 11 12 13 12 9 10 12 11 12 13 14 14 13 13 11 3 2 5 4 3 4 5 5 3 3 3 1 2 2 2 4 3 2 1 2 3 2 3 10 11 10 10 5 3 5 9 11 10 9 8 7 6 6 6 7
3 5 7 6 5 9 10 10 11 15 15 14 13 11 12 10 7 5 4 3 2 3 7 9 6 7 5 4 2 4 6 7 9 11 9 11 11 10 10 8 5 7 5 8 12 9 7 5 3 3 4 4 4 5 4 2 3 2 1 1 1 2 3 4 3 1 1 1 3 2 5 14 16 14 13 9 4 7 11 10 9 9 8 7 6 6 6 7
6 6 6 3 6 10 11 12 14 19 22 23 22 19 19 18 19 21 20 12 4 2 3 5 5 4 1 3 4 5 6 5 6 11 9 6 7 10 12 11 6 6 5 4 6 6 3 4 5 4 3 4 2 2 5 5 5 5 4 4 2 3 4 5 4 3 1 0 5 6 7 12 15 16 14 9 4 7 10 8 7 8 7 7 7 7 7 7
6 6 4 1 7 10 11 12 13 16 21 21 16 11 9 8 11 12 15 14 6 4 6 1 2 4 2 3 5 6 6 7 8 13 15 8 2 4 10 10 7 7 5 1 3 4 3 6 5 1 3 5 5 3 5 3 4 5 4 3 3 2 4 4 2 4 1 0 6 5 6 11 14 17 16 9 3 6 9 8 9 9 7 8 7 8 9 8
5 4 3 1 7 9 8 9 10 14 14 10 5 2 2 3 6 1 2 6 4 5 8 4 4 6 2 1 7 5 2 9 13 16 18 10 2 3 7 7 7 7 4 1 2 4 5 7 2 5 6 4 2 3 5 4 5 4 3 1 2 2 5 4 1 4 3 0 5 2 4 12 14 15 14 7 4 7 7 7 9 9 8 7 8 10 9 6
4 3 2 3 7 8 6 4 8 14 14 11 6 0 2 7 11 10 5 5 4 6 5 3 5 5 1 3 10 8 3 8 11 14 18 12 5 4 3 6 8 3 5 3 1 5 7 4 4 5 3 4 4 4 5 5 5 3 2 1 2 2 4 5 2 4 3 0 4 4 6 13 14 12 11 7 6 7 6 6 8 7 8 8 9 10 9 7
4 3 3 3 6 9 7 3 4 9 12 11 8 4 8 12 15 10 5 6 2 4 2 3 6 5 4 5 11 10 7 6 4 10 18 13 5 3 4 6 6 2 6 5 2 3 5 1 2 1 4 6 6 4 5 5 3 2 3 2 3 3 1 3 3 4 2 1 4 5 5 10 10 8 8 6 5 6 6 7 8 7 8 9 8 8 8 9
4 3 3 4 6 7 6 4 4 6 10 11 9 11 14 13 11 6 3 4 2 2 2 2 4 4 3 4 10 7 5 3 1 7 16 10 3 2 4 4 5 4 3 5 6 6 4 1 2 5 3 6 6 5 5 4 1 2 2 3 2 3 2 4 4 5 3 1 2 4 5 6 5 5 7 5 3 6 5 5 8 7 7 7 7 8 9 9
5 5 5 7 8 7 6 4 4 7 10 9 11 14 13 9 6 3 3 4 3 2 2 1 2 4 2 4 11 4 3 3 1 4 11 7 2 1 3 2 4 4 2 1 5 5 3 1 3 3 4 6 7 4 2 4 0 4 2 5 5 4 4 5 4 4 4 2 1 3 4 5 5 5 8 5 6 8 5 5 9 8 6 6 7 10 10 8
3 5 6 8 10 10 8 4 4 9 10 7 10 12 9 5 2 0 3 5 4 3 4 2 1 5 3 6 10 2 3 3 2 3 7 7 3 3 4 2 2 3 4 3 3 2 1 1 3 3 4 7 6 2 1 4 4 2 2 4 4 3 2 3 2 3 2 2 3 3 2 4 7 7 9 5 6 10 8 7 9 9 7 6 7 9 9 9
3 4 6 9 11 12 7 4 8 11 6 4 10 11 6 3 0 1 2 5 4 2 4 3 1 5 4 5 6 2 2 4 2 3 7 8 5 3 5 3 1 1 2 3 3 1 1 2 6 5 6 6 3 1 2 5 5 1 2 4 4 3 4 3 3 3 1 3 4 4 3 2 6 7 7 4 6 10 10 9 9 7 7 8 9 10 10 10
6 6 7 8 13 12 4 4 13 11 3 6 12 10 4 2 1 1 4 4 2 1 1 3 2 4 4 5 7 5 0 4 2 3 8 10 6 3 4 2 4 0 0 5 2 1 1 2 3 3 5 3 1 2 5 6 2 3 2 4 3 3 4 3 4 3 1 3 4 3 2 1 6 7 5 4 4 8 9 9 9 7 7 8 9 10 10 11
8 7 8 10 13 11 4 7 12 8 6 10 11 7 4 2 1 3 5 3 2 1 1 2 2 4 6 6 7 5 3 3 3 5 9 8 6 6 4 3 6 3 1 4 4 3 0 0 3 4 4 1 3 3 5 4 1 1 4 3 3 3 3 3 4 2 2 3 4 5 1 0 5 6 5 2 3 7 8 8 8 8 8 7 8 9 10 9
8 8 9 10 11 9 7 7 8 8 10 12 10 7 5 2 4 5 3 1 1 2 1 2 2 4 7 7 6 6 5 3 3 6 6 4 6 7 4 2 5 6 3 4 3 2 1 1 2 3 2 3 2 1 2 2 1 4 4 2 3 3 3 3 2 3 3 2 6 5 1 1 3 6 5 4 5 6 6 7 8 7 8 8 8 8 8 7
8 8 8 8 9 8 6 6 8 11 12 11 10 6 4 2 5 7 1 1 0 2 3 4 3 4 7 5 3 5 5 5 6 6 6 4 7 8 4 2 3 4 5 5 3 3 2 2 1 1 1 1 2 2 1 2 3 4 3 2 2 3 3 3 4 4 2 4 5 4 2 1 2 6 6 6 7 6 7 8 9 8 8 8 7 7 7 6
13 10 8 7 7 6 6 8 12 13 11 11 8 4 4 2 4 3 1 3 2 2 2 1 2 4 4 3 3 5 4 5 5 5 4 3 5 5 3 2 1 4 4 3 4 4 1 2 2 1 0 1 2 1 3 4 4 4 4 5 4 4 4 3 4 3 1 5 3 1 3 2 6 9 10 11 13 10 9 9 9 8 8 8 8 8 6 5
19 15 13 10 8 8 11 13 13 11 10 9 4 5 7 5 1 2 3 2 2 2 0 0 3 2 2 3 4 4 2 2 4 4 1 1 4 3 3 0 2 2 2 1 2 4 3 4 3 2 0 1 4 3 2 3 4 4 3 3 3 2 4 3 4 3 4 5 3 1 2 3 5 7 10 13 13 11 7 8 8 8 8 9 9 8 8 8
22 19 18 16 12 12 13 13 11 9 7 5 4 5 6 4 1 2 2 3 1 3 1 0 3 3 3 3 3 3 1 1 3 4 3 3 4 3 4 3 2 3 2 2 1 2 2 4 3 2 1 2 3 3 2 2 2 1 2 4 3 3 2 3 4 2 4 6 5 3 1 3 3 5 8 10 10 8 5 6 7 7 9 8 8 8 9 9
20 22 22 20 15 10 9 9 8 7 4 4 6 5 4 1 2 2 2 4 1 2 1 1 3 4 3 3 3 2 1 1 2 4 4 4 2 0 2 3 3 3 3 2 1 1 2 4 5 2 2 2 2 1 2 4 3 1 2 3 1 3 4 1 3 4 1 3 4 3 3 5 4 9 10 5 6 7 5 5 5 7 8 5 6 8 8 8
13 18 23 23 17 9 5 6 6 5 4 6 7 5 2 3 1 1 2 2 1 0 1 2 4 5 3 4 4 3 2 1 2 3 3 2 1 2 1 2 1 2 2 2 1 0 2 5 5 3 2 4 1 2 1 2 1 1 1 1 2 3 5 3 1 0 3 1 4 2 4 6 4 8 10 7 7 7 6 6 6 7 7 5 6 8 7 8
7 8 14 22 20 9 4 4 6 6 4 7 6 2 1 2 1 1 1 1 1 1 3 1 2 3 1 2 4 5 3 2 2 2 1 1 1 3 1 2 1 1 2 2 2 1 1 4 5 1 1 1 1 1 3 2 2 2 1 3 2 2 4 3 0 4 4 1 4 2 5 7 3 4 7 8 7 8 8 7 7 8 7 6 7 8 8 9
4 3 7 19 22 9 5 6 7 5 6 8 5 2 1 0 1 1 1 1 1 2 5 2 1 1 1 1 3 5 4 3 3 3 1 1 0 3 2 1 1 1 0 1 1 0 2 2 6 1 2 3 3 2 3 3 2 2 2 2 2 1 1 1 1 1 2 3 5 5 5 5 3 4 6 6 6 8 9 8 7 8 8 7 8 8 9 9
2 2 3 17 21 9 5 7 6 6 7 6 3 2 1 0 1 1 1 0 0 2 3 1 1 2 2 2 1 3 3 2 1 2 1 0 1 1 2 1 1 1 1 1 2 1 2 1 4 3 2 2 3 1 1 2 2 3 2 2 2 2 4 1 1 2 1 2 4 5 5 4 6 6 5 8 9 8 9 7 7 9 8 8 8 8 8 8
1 1 1 16 20 7 7 8 7 8 7 4 3 2 1 1 1 1 1 1 1 1 1 2 1 1 2 2 1 1 2 1 1 0 0 0 1 1 1 1 1 1 1 2 2 1 2 2 3 5 3 2 2 2 4 4 2 1 1 1 1 1 2 1 0 3 3 2 2 3 5 7 8 5 6 10 11 8 8 7 7 8 8 8 8 8 8 8
3 3 2 19 18 1 5 10 9 5 4 3 2 2 1 1 2 1 2 1 1 1 1 4 3 1 2 1 1 2 1 1 1 0 1 1 1 1 2 2 1 1 1 2 1 0 1 2 3 4 4 3 4 4 3 5 5 4 4 4 3 3 3 1 3 2 2 2 4 2 4 11 8 3 6 9 8 8 7 6 7 9 9 10 9 8 9 8
6 4 5 19 11 5 6 8 4 3 4 2 1 1 1 1 2 1 2 2 2 1 1 2 2 1 3 1 1 2 1 0 1 0 1 3 2 2 2 3 2 1 2 1 1 1 1 3 0 5 5 5 5 3 0 2 3 3 2 2 4 4 5 4 3 3 1 1 1 3 2 10 8 5 6 7 6 7 6 5 8 9 9 10 10 10 9 8
4 3 6 17 5 7 8 7 1 5 4 0 1 1 1 2 2 1 1 2 2 1 2 1 1 0 1 1 1 2 1 2 2 1 1 3 2 1 2 4 4 1 2 1 1 1 1 2 1 5 5 4 4 3 2 2 2 1 2 2 4 3 4 5 5 4 2 3 2 2 3 10 8 3 5 5 4 6 6 6 8 9 9 10 10 10 9 8
2 3 5 17 8 5 4 5 2 3 2 0 2 2 2 1 2 2 1 1 2 1 1 1 0 1 1 1 2 1 1 0 1 1 0 2 2 1 2 4 4 2 2 1 1 1 1 0 1 4 6 7 6 6 5 3 0 3 3 1 2 4 6 4 3 3 2 5 7 4 5 10 7 1 2 5 5 7 9 7 7 8 9 10 10 9 9 8
3 1 3 15 19 11 5 4 6 4 1 1 4 3 3 2 2 2 1 0 1 1 1 1 1 1 1 2 2 1 1 1 1 2 2 1 3 2 3 3 3 1 0 1 0 0 2 2 2 1 2 4 5 6 5 3 2 2 1 2 2 4 7 3 2 3 3 4 6 6 7 10 11 11 11 10 8 10 12 10 7 8 9 10 10 9 9 8
4 3 3 9 14 11 4 1 4 5 3 3 3 2 3 2 1 1 2 1 1 2 1 1 1 2 2 2 2 2 2 1 1 1 1 3 4 1 1 1 1 1 1 1 0 2 2 1 4 6 6 7 8 9 4 1 1 5 4 4 4 5 5 5 4 3 5 3 3 9 12 12 18 20 18 15 12 13 14 12 11 10 10 10 9 9 9 9
3 3 2 3 5 6 5 5 6 4 2 3 3 1 2 2 3 2 1 0 1 1 1 1 1 1 0 1 2 1 2 1 1 1 2 4 4 3 1 1 1 1 2 2 1 3 4 3 5 8 10 11 12 11 4 2 5 9 8 6 6 6 6 7 6 7 5 4 6 12 8 8 17 20 17 17 15 15 15 14 14 13 12 11 10 10 11 10
4 2 1 1 1 2 3 4 4 5 5 4 3 1 2 3 4 2 1 1 1 1 1 1 2 0 3 2 1 1 3 3 2 2 2 2 3 3 2 1 1 2 3 2 2 3 4 4 4 4 8 10 11 13 7 3 7 7 8 12 8 7 9 12 14 10 8 6 13 11 4 8 16 19 19 19 15 14 16 15 14 13 13 13 11 10 11 11
4 3 1 2 3 3 1 3 2 5 6 4 3 3 2 3 4 2 1 2 3 2 2 2 4 4 2 2 0 1 2 2 4 4 1 1 3 2 3 2 1 2 2 2 3 1 3 4 2 0 7 9 10 13 7 4 6 6 11 14 8 9 13 15 14 10 8 12 19 17 14 17 19 20 20 19 16 14 13 12 12 14 14 13 12 11 11 11
3 2 1 4 4 2 0 2 3 4 4 4 3 2 1 1 3 3 1 1 2 3 2 1 4 3 1 1 1 2 4 2 4 6 2 0 3 1 2 3 2 2 2 2 2 2 1 3 1 3 5 8 6 7 4 3 5 7 14 14 7 9 11 11 10 7 6 12 17 14 13 16 19 17 15 14 13 11 11 11 12 13 12 11 12 12 11 12
4 2 3 5 3 4 2 2 3 4 3 4 2 1 0 1 2 2 2 1 2 2 2 2 2 2 1 2 1 6 7 5 6 8 5 3 4 3 3 2 4 3 1 1 0 1 1 3 2 5 5 7 4 6 8 6 5 6 15 15 7 7 7 7 7 6 8 9 8 5 6 11 13 10 8 11 12 11 13 13 11 12 11 10 11 13 13 13
4 1 2 5 3 4 3 3 3 4 2 2 0 1 1 2 3 2 1 1 1 2 4 6 3 1 2 3 5 7 6 6 6 7 4 4 3 2 1 0 4 5 4 3 1 0 3 1 2 4 3 6 6 7 9 8 6 6 10 8 5 6 5 4 5 8 10 7 3 4 7 8 9 8 10 15 15 15 15 9 7 11 15 13 12 13 14 14
Wind_Direction
158 134 125 114 111 108 112 114 117 117 108 104 91 75 44 33 19 9 6 359 359 355 359 11 355 345 340 334 346 157 38 37 43 37 35 7 353 355 358 359 7 19 26 38 82 102 77 53 44 52 60 49 21 342 28 38 38 56 75 83 110 164 189 183 172 191 167 154 186 205 183 139 151 218 270 329 24 10 325 307 300 305 270 248 253 303 3 68
116 115 111 109 109 108 111 110 112 110 109 113 86 61 30 22 7 6 2 359 2 353 359 359 336 323 317 312 293 174 155 34 38 28 15 359 357 3 11 16 24 27 31 60 84 98 85 41 24 50 53 39 355 356 20 14 37 75 102 81 132 196 197 182 172 181 164 153 167 173 173 147 156 173 106 189 277 339 312 282 316 315 289 280 263 268 66 118
110 111 108 107 108 106 110 109 113 115 112 98 59 37 17 10 3 6 0 1 359 346 359 352 331 320 315 297 226 175 187 34 38 10 354 357 359 16 29 33 38 32 51 86 88 94 101 103 75 66 60 49 9 6 26 12 25 75 96 82 189 206 169 207 177 177 198 152 148 158 158 154 182 168 48 183 208 300 245 240 272 268 272 278 271 82 100 119
109 108 108 107 109 111 114 115 117 116 96 73 42 23 11 8 7 6 2 4 350 336 9 21 4 349 359 65 144 162 180 49 33 338 347 354 357 20 39 42 37 47 89 97 91 92 97 87 71 68 71 50 348 15 35 358 18 60 72 116 189 173 113 296 196 166 155 129 142 145 119 161 210 162 227 155 156 273 254 228 215 223 238 248 271 26 111 127
110 110 112 111 116 117 118 121 117 107 81 47 22 11 10 11 12 15 16 14 351 342 59 68 63 62 68 78 127 160 123 63 337 336 348 348 356 15 39 42 29 71 109 100 90 86 82 66 61 55 60 47 350 24 21 336 60 69 24 168 191 153 115 283 192 146 125 105 116 127 135 179 165 147 185 160 178 230 236 222 211 216 223 229 257 358 133 136
120 119 120 118 120 122 124 127 112 93 50 15 11 10 18 28 40 50 49 47 34 48 110 93 76 71 69 71 82 91 90 91 321 338 344 341 357 8 19 23 31 90 132 117 78 67 57 46 54 50 59 55 22 48 358 330 62 91 26 354 341 130 127 155 150 147 133 120 140 156 170 148 114 277 204 175 215 231 229 210 200 227 241 247 254 215 174 151
131 126 125 124 126 129 129 120 93 26 3 1 9 19 44 65 72 70 60 55 48 72 133 131 93 67 55 63 68 66 83 60 336 339 340 345 358 359 20 45 85 104 149 103 72 83 74 62 76 88 79 74 59 71 22 5 55 82 84 7 7 57 86 93 131 134 123 134 179 177 127 139 171 241 73 207 236 244 251 245 233 254 263 251 229 206 181 160
133 129 130 129 130 129 121 94 338 339 353 7 32 62 90 95 86 73 62 57 53 63 105 157 158 29 18 46 68 63 57 346 343 344 345 360 14 8 21 48 88 123 106 77 81 111 88 72 104 132 80 71 104 87 26 41 49 62 99 82 33 41 38 46 79 81 93 119 194 117 151 219 190 182 260 241 244 246 250 267 266 253 254 216 206 200 178 168
129 131 129 128 128 120 322 319 325 344 11 44 80 107 116 107 89 74 64 60 59 62 66 74 118 277 29 54 99 70 6 346 353 357 13 25 35 45 58 70 95 127 96 68 70 105 91 90 152 144 119 119 91 52 339 58 56 64 97 90 69 39 14 52 69 56 55 41 60 136 233 270 230 243 271 245 237 239 247 284 283 156 165 247 228 208 186 183
136 140 135 146 159 6 359 6 7 40 69 89 110 129 129 115 93 83 75 69 67 65 63 65 71 93 96 71 79 67 343 359 21 34 56 62 64 67 69 71 91 106 86 64 52 68 113 139 136 117 114 110 71 25 347 81 116 117 91 82 64 45 13 56 89 32 4 338 87 182 242 277 319 319 272 256 238 216 221 269 273 165 219 258 251 220 197 193
160 160 143 126 103 92 84 79 84 90 99 110 125 140 138 122 102 90 84 76 67 62 61 63 68 79 80 71 75 67 356 22 42 55 66 70 68 62 61 73 99 97 89 72 61 82 107 124 128 113 97 94 85 50 31 81 113 89 88 72 19 19 43 57 92 353 333 148 122 141 264 281 334 312 242 255 259 179 204 242 255 213 229 251 241 222 205 203
163 139 120 109 96 85 80 83 102 109 116 126 139 150 142 126 108 90 82 71 52 40 40 49 51 67 71 63 60 51 42 49 57 64 67 69 71 67 68 81 94 98 98 84 61 89 107 122 110 90 74 121 108 69 77 92 86 67 72 71 357 11 30 332 110 346 337 118 173 131 319 283 223 226 242 246 69 163 204 230 248 230 233 250 235 220 214 210
139 128 114 98 82 76 83 91 113 119 125 140 154 161 156 146 118 100 65 29 18 23 34 55 51 61 75 63 41 57 66 68 71 72 71 74 76 74 74 81 86 87 94 88 75 85 101 105 97 92 92 101 104 135 115 62 66 61 41 73 18 10 340 274 302 14 4 158 201 131 318 278 239 240 248 241 132 179 217 232 242 235 237 244 231 219 223 212
134 125 104 81 66 70 90 99 112 124 132 145 158 159 155 147 114 102 11 13 41 51 56 71 67 65 74 83 57 62 74 81 74 67 70 78 78 76 76 80 83 82 86 86 82 85 93 93 90 89 72 83 106 105 69 20 39 51 21 44 40 28 283 283 304 106 145 219 39 104 231 270 273 264 262 253 182 184 223 238 239 240 240 240 232 219 226 217
138 125 86 58 47 59 90 107 119 131 133 140 148 145 133 111 85 50 37 59 76 58 58 69 67 67 71 83 69 62 68 67 58 52 63 77 77 76 75 79 81 81 82 82 81 83 84 83 77 73 61 36 58 71 45 13 27 44 55 337 352 158 273 302 270 169 175 281 10 115 226 274 280 278 282 263 179 191 223 240 242 244 242 239 238 221 226 228
152 123 46 23 28 61 99 116 126 131 129 131 129 121 109 106 101 86 78 83 76 60 68 62 56 75 87 85 50 49 47 37 35 48 63 70 75 79 76 80 80 76 77 73 76 75 69 71 68 63 80 37 50 73 57 38 6 5 93 201 265 197 298 312 292 203 178 193 328 202 236 283 276 272 287 83 151 201 236 246 245 244 245 240 236 227 225 230
178 3 1 3 34 89 111 112 114 120 122 125 125 123 121 128 130 91 72 88 84 69 70 50 42 75 70 22 40 19 5 11 27 48 61 58 65 77 72 75 65 59 68 55 51 48 39 52 65 46 61 52 62 78 63 40 323 323 42 115 233 217 264 296 312 337 107 153 258 228 231 261 267 269 280 280 187 218 246 249 246 243 246 242 237 235 226 222
250 317 342 6 77 116 119 114 111 113 117 118 117 115 108 99 96 80 51 110 146 8 43 23 26 78 40 5 18 321 322 352 26 38 54 60 61 65 58 55 27 14 28 31 30 24 15 28 59 70 36 23 31 62 94 182 206 185 222 103 296 254 234 264 282 311 100 159 248 238 248 262 272 277 279 279 222 221 246 248 249 249 246 247 244 237 230 226
276 305 333 23 129 135 123 121 117 115 117 115 113 107 95 81 75 67 54 59 58 9 58 2 20 102 63 345 323 330 357 358 23 29 27 41 61 63 47 39 36 32 32 23 14 13 30 32 40 57 11 344 351 92 136 184 168 151 179 159 187 252 257 242 247 277 247 248 254 232 246 267 279 284 283 284 232 223 253 259 254 250 246 248 245 241 236 231
282 304 327 80 149 150 137 137 134 128 124 122 120 103 89 70 59 46 35 51 65 81 108 121 54 84 46 341 332 351 33 46 45 25 16 8 19 46 25 21 36 50 49 24 346 354 58 66 45 79 237 260 255 199 140 131 123 117 115 126 186 222 282 264 261 309 335 249 263 236 255 271 275 277 279 288 282 248 256 259 255 248 244 242 240 245 239 235
280 299 310 174 163 158 154 164 168 166 159 159 167 80 149 141 82 138 326 50 43 51 86 125 108 81 75 10 0 353 38 47 35 18 14 7 360 33 0 10 47 41 9 297 321 347 55 74 6 255 222 235 258 167 133 99 79 82 114 112 304 221 257 267 175 314 352 51 273 325 314 279 271 271 275 287 283 261 244 240 255 251 245 243 242 247 242 246
272 279 263 206 184 177 175 191 197 200 204 209 216 60 153 149 129 147 149 84 29 26 81 117 84 61 53 50 14 11 66 41 18 4 7 6 20 58 10 35 64 38 343 357 356 3 46 72 296 271 182 99 60 95 107 93 84 67 100 105 311 261 270 286 310 334 360 169 274 342 332 285 277 274 275 272 248 255 244 233 254 256 251 247 239 247 248 252
263 257 230 207 192 188 191 179 182 198 200 202 204 162 136 136 142 149 104 94 67 3 31 63 67 29 2 32 12 19 65 50 360 342 354 4 26 78 94 63 63 38 6 31 99 74 59 17 309 181 142 99 62 51 75 80 87 87 94 111 270 295 2 287 310 338 332 223 276 303 302 283 288 295 284 267 242 265 273 256 257 247 245 248 244 251 247 245
249 233 213 205 186 180 184 163 143 165 182 191 179 159 151 145 152 154 75 85 75 19 19 65 98 65 29 18 3 23 85 56 97 333 347 11 75 63 86 97 77 62 17 43 86 101 99 263 81 89 102 103 84 42 67 94 326 318 132 144 241 282 228 229 278 322 319 322 294 310 314 289 306 328 290 286 306 294 305 304 284 258 245 258 269 265 246 241
243 222 201 194 184 179 177 154 132 142 152 159 156 158 155 148 161 147 77 60 22 337 360 63 99 50 50 3 359 19 120 41 102 310 341 20 88 40 69 118 90 82 224 130 80 86 84 171 147 96 48 73 86 56 80 139 319 319 232 193 217 238 243 269 306 350 14 358 307 12 1 293 313 315 271 295 339 308 320 325 290 279 272 264 264 262 252 245
224 207 191 185 180 173 168 152 143 142 135 138 159 166 160 150 183 270 87 62 32 325 356 23 60 15 358 353 352 3 93 18 305 332 1 16 358 124 89 343 52 100 188 165 96 96 53 59 111 114 76 58 59 49 221 138 94 2 236 193 190 170 191 267 338 47 48 281 290 55 106 260 311 304 269 302 332 299 304 300 276 276 277 256 248 255 257 253
150 161 170 180 177 168 165 176 172 159 145 174 178 174 170 167 184 26 65 42 17 313 360 339 323 11 353 338 351 82 87 317 299 24 23 13 348 103 83 1 37 71 177 119 56 78 212 1 30 45 67 61 47 6 213 142 103 296 227 142 149 147 181 195 95 84 229 274 324 27 108 233 294 279 272 325 324 297 300 293 280 275 266 253 250 252 252 253
116 131 151 165 172 173 183 177 169 167 170 178 175 175 175 175 197 41 74 65 352 332 39 313 326 7 341 347 21 78 142 314 45 345 352 21 11 44 78 128 149 235 270 108 90 270 176 7 18 52 61 64 213 228 190 160 99 276 195 137 158 163 172 156 99 95 359 357 321 320 96 226 274 269 296 346 305 290 288 279 278 277 268 258 255 256 254 256
105 112 135 155 171 177 182 166 165 168 166 157 155 161 168 158 130 47 74 105 333 359 163 313 356 344 341 2 16 34 11 4 63 312 335 26 26 40 84 165 134 116 310 113 150 217 164 219 183 127 88 229 238 227 184 167 331 218 146 104 67 76 87 81 89 115 42 14 267 258 133 217 275 278 305 330 253 263 267 269 270 267 270 265 259 262 263 266
102 107 121 140 159 160 148 148 152 151 148 146 141 143 152 117 63 58 52 155 351 331 278 18 12 334 8 28 356 2 26 2 332 332 349 21 4 30 88 168 104 98 353 33 103 215 317 359 175 133 138 207 189 177 180 153 120 126 114 73 51 37 43 60 65 94 62 313 260 261 275 83 294 283 265 236 226 229 244 275 282 276 281 272 258 259 261 269
90 110 126 137 144 148 145 127 132 142 140 137 138 128 122 46 58 89 102 274 346 323 3 29 358 8 35 49 349 347 18 344 332 8 18 4 358 13 45 42 55 57 9 8 7 308 352 36 250 226 206 147 109 106 47 42 89 108 89 59 42 346 8 28 356 40 76 272 262 269 299 142 241 268 251 244 258 241 227 257 271 273 281 275 265 263 261 262
73 87 110 132 144 146 144 136 134 136 134 137 136 92 80 32 23 99 270 321 340 317 24 9 312 28 39 45 13 334 335 345 360 47 41 16 31 20 23 60 86 30 6 316 321 334 296 212 272 302 238 77 88 75 1 357 23 58 57 51 42 350 3 9 329 1 221 249 241 244 315 252 231 253 258 265 272 258 230 229 241 251 263 270 271 276 284 282
70 76 85 91 113 118 119 132 133 129 137 142 112 48 76 78 28 204 265 322 11 321 58 203 311 16 39 30 10 326 323 355 1 42 60 79 69 28 347 161 150 58 348 267 342 354 333 298 333 43 303 13 82 90 352 324 5 40 74 77 71 55 23 324 285 317 283 269 273 291 308 278 274 269 244 244 258 260 242 229 233 243 254 265 274 285 297 291
70 70 74 76 87 103 113 127 130 130 143 131 70 51 67 69 185 178 273 268 292 348 10 270 335 7 54 50 345 316 40 6 348 26 12 30 55 13 334 330 11 75 93 75 48 43 22 307 315 43 301 6 65 116 135 123 68 45 160 122 112 141 129 269 245 250 283 291 296 306 257 213 249 276 239 231 255 270 263 248 252 258 256 264 281 288 288 284
67 60 58 59 66 87 118 136 139 142 143 86 64 64 84 153 227 168 239 262 285 358 317 281 46 47 16 353 332 345 84 294 354 41 21 33 80 58 337 313 341 63 97 49 300 115 65 266 270 312 300 55 49 230 111 97 93 231 169 98 77 170 149 191 201 190 241 311 293 271 237 212 225 276 279 286 294 292 289 281 283 276 270 278 284 279 277 280
60 50 45 41 40 55 113 151 162 164 140 83 64 55 127 193 220 160 200 294 333 227 302 332 40 54 352 324 340 9 39 301 351 33 20 37 152 209 274 258 288 68 109 114 228 118 29 284 290 341 14 65 62 242 57 60 124 107 110 151 231 163 122 111 242 350 70 7 280 270 267 283 321 295 298 348 339 317 327 319 302 286 289 299 279 274 277 279
36 49 44 28 23 35 90 145 167 159 106 76 81 96 205 207 165 170 258 320 277 114 78 10 351 40 330 302 320 328 341 322 350 26 3 4 177 189 231 258 204 119 156 152 211 200 136 282 301 7 99 5 283 185 46 46 133 100 176 213 200 110 94 98 332 348 37 288 276 302 274 290 351 306 310 352 337 309 311 311 306 299 295 285 270 270 276 276
3 74 58 20 14 27 86 117 142 131 82 68 82 144 185 19 155 204 306 350 280 49 73 120 300 46 170 276 307 301 326 342 356 26 60 325 227 160 147 260 175 104 261 99 97 146 112 289 303 314 164 308 336 76 12 352 84 100 192 179 114 132 200 57 96 322 353 298 287 304 292 276 219 233 286 313 299 292 297 300 302 292 278 268 268 271 276 280
351 62 51 7 6 25 103 122 121 77 66 74 90 154 146 7 310 244 222 305 238 68 68 181 314 47 164 177 270 293 340 19 5 28 90 356 314 161 140 197 176 101 306 65 126 204 88 90 288 282 215 315 356 100 243 317 31 39 32 19 31 144 170 181 130 162 204 270 286 315 327 280 230 210 223 265 277 283 285 289 286 273 264 260 265 271 276 278
16 66 27 356 3 41 105 90 73 51 61 103 163 158 53 261 240 262 249 275 117 96 66 180 153 52 210 215 241 270 357 61 160 67 253 237 275 240 97 132 163 136 336 36 109 152 56 110 253 294 321 315 296 221 198 182 151 95 61 318 319 83 153 216 75 131 143 177 233 304 313 277 257 205 203 251 271 269 259 264 272 270 268 265 264 269 275 276
46 80 339 347 350 196 109 58 50 49 83 98 134 149 47 159 174 308 296 322 86 176 156 156 153 127 190 220 260 212 309 7 172 208 264 239 212 270 12 43 169 172 57 55 93 137 63 144 222 295 324 273 247 252 205 182 170 159 179 195 179 145 130 143 302 306 111 156 186 181 287 277 267 183 204 240 253 258 251 245 263 276 277 277 276 271 270 272
54 86 328 346 352 158 87 52 37 45 95 91 60 131 41 87 122 6 326 359 42 48 52 107 145 143 161 183 211 184 186 320 220 240 236 223 217 231 346 6 325 208 119 117 273 247 141 105 151 272 267 252 266 297 350 178 157 142 179 180 145 129 125 141 230 257 196 173 171 114 268 272 259 181 199 227 229 251 257 240 262 280 278 279 284 280 274 271
64 126 342 355 3 158 70 54 341 21 61 143 3 74 26 61 100 29 2 8 30 35 15 27 189 55 161 206 106 157 201 214 199 186 222 240 252 255 315 347 334 338 86 110 262 296 80 85 7 284 284 304 317 334 15 46 83 150 242 149 138 149 136 152 177 185 202 205 157 93 267 269 268 199 200 243 256 273 273 250 258 278 285 282 282 284 284 280
110 170 357 12 30 167 82 79 139 42 49 262 40 39 349 49 80 32 356 341 9 77 42 22 312 30 47 82 78 151 221 270 233 237 185 228 245 27 26 351 339 13 83 139 157 344 287 208 47 336 329 337 343 350 348 343 257 224 242 188 149 119 101 116 144 114 256 219 168 154 251 261 270 283 258 278 295 296 288 267 253 266 284 290 290 290 289 285
73 147 313 17 41 70 95 138 145 124 134 77 58 28 359 41 73 49 63 14 23 133 98 5 353 41 56 51 47 38 15 13 297 333 21 255 259 11 37 343 328 86 129 289 346 281 240 206 128 94 312 304 304 306 298 269 249 248 225 206 199 141 130 151 138 118 242 236 162 171 237 266 287 299 294 291 298 299 297 295 284 271 275 284 288 292 292 288
71 59 315 351 29 56 76 107 100 107 132 113 74 17 24 52 346 27 90 101 71 108 118 282 334 53 57 40 23 340 322 357 8 340 326 262 267 293 51 330 335 135 230 275 270 79 92 224 211 188 199 223 243 256 253 119 270 271 263 232 205 183 152 126 109 173 202 180 197 227 238 272 290 289 292 300 305 303 303 306 304 296 289 286 284 287 290 286
89 65 9 325 354 29 40 22 38 61 112 114 93 14 12 351 316 349 56 114 123 100 136 165 90 85 118 27 8 280 272 326 26 252 239 238 263 280 218 178 152 305 303 272 236 98 86 279 241 203 222 239 249 264 295 26 277 265 271 256 208 183 157 154 194 214 161 126 263 251 221 243 272 277 286 294 298 302 304 303 302 301 297 293 290 289 288 284
79 128 214 163 49 29 19 10 40 55 44 70 100 47 6 357 355 353 328 343 29 31 353 16 20 270 206 185 101 279 304 333 313 257 244 249 285 330 340 193 110 355 349 353 329 105 124 263 248 196 250 265 271 281 288 277 268 264 266 264 237 181 176 196 220 214 159 197 256 260 237 251 268 277 283 285 288 294 295 297 299 298 294 292 291 289 286 282
75 108 259 33 94 159 223 345 76 77 45 56 81 45 37 25 4 331 256 21 358 352 32 349 327 331 291 257 73 276 282 339 317 283 260 274 292 340 326 287 80 25 16 38 342 86 146 259 287 37 291 283 276 283 281 241 267 279 264 257 228 195 203 213 231 225 196 234 256 267 280 281 276 274 276 282 289 289 287 292 294 290 290 292 292 289 284 282
87 128 176 55 63 126 182 360 67 76 35 38 60 39 81 87 350 310 258 87 346 327 29 342 309 322 292 218 85 245 234 224 299 281 208 43 296 237 244 258 124 56 24 72 340 327 167 272 347 65 317 291 283 313 336 216 234 269 276 267 218 204 225 227 239 235 216 247 261 269 281 278 272 272 275 278 281 285 289 291 289 286 287 290 293 292 285 284
84 164 146 101 49 1 4 14 67 84 34 14 42 25 337 161 192 262 273 181 155 212 195 188 275 294 86 76 268 257 240 209 246 252 202 194 253 212 217 247 131 119 63 113 331 9 136 280 3 51 339 292 297 346 332 286 245 261 279 278 235 200 216 221 227 208 194 226 259 276 269 264 270 287 297 282 279 285 286 284 287 294 296 289 287 290 288 285
57 358 61 99 78 359 6 5 30 77 59 346 262 238 298 246 221 224 312 339 107 159 197 180 175 250 334 330 275 253 228 203 231 254 220 202 235 194 178 100 112 127 162 160 142 129 137 136 4 35 327 276 292 325 318 317 331 295 267 249 205 206 218 226 244 226 205 197 200 233 244 264 288 309 306 297 297 294 287 286 295 300 301 297 285 282 284 283